GFSWCAN_prec_snow24_192.txt.gz
Snowfall_Accumulation
0.0 0.0 0.0 0.0 0.0 0.0 0.0 0.0 0.0 0.0 0.0 0.0 0.0 0.0 0.0 0.0 0.0 0.0 0.0 0.0 0.0 0.0 0.0 0.0 0.0 0.0 0.0 0.0 0.0 0.0 0.0 0.0 0.0 0.0 0.0 0.0 0.0 0.0 0.0 0.0 0.0 0.0 0.0 0.0 0.0 0.0 0.0 0.0 0.0 0.0 0.0 0.0 0.0 0.0
0.0 0.0 0.0 0.0 0.0 0.0 0.0 0.0 0.0 0.0 0.0 0.0 0.0 0.0 0.0 0.0 0.0 0.0 0.0 0.0 0.0 0.0 0.0 0.0 0.0 0.0 0.0 0.0 0.0 0.0 0.0 0.0 0.0 0.0 0.0 0.0 0.0 0.0 0.0 0.0 0.0 0.0 0.0 0.0 0.0 0.0 0.0 0.0 0.0 0.0 0.0 0.0 0.0 0.0
0.0 0.0 0.0 0.0 0.0 0.0 0.0 0.0 0.0 0.0 0.0 0.0 0.0 0.0 0.0 0.0 0.0 0.0 0.0 0.0 0.0 0.0 0.0 0.0 0.0 0.0 0.0 0.0 0.0 0.0 0.0 0.0 0.0 0.0 0.0 0.0 0.0 0.0 0.0 0.0 0.0 0.0 0.0 0.0 0.0 0.0 0.0 0.0 0.0 0.0 0.0 0.0 0.0 0.0
0.0 0.0 0.0 0.0 0.0 0.0 0.0 0.0 0.0 0.0 0.0 0.0 0.0 0.0 0.0 0.0 0.0 0.0 0.0 0.0 0.0 0.0 0.8 0.3 0.0 0.0 0.0 0.0 0.0 0.0 0.0 0.0 0.0 0.0 0.0 0.0 0.0 0.0 0.0 0.0 0.0 0.0 0.0 0.0 0.0 0.0 0.0 0.0 0.0 0.0 0.0 0.0 0.0 0.0
0.0 0.0 0.0 0.0 0.0 0.0 0.0 0.0 0.0 0.0 0.0 0.0 0.0 0.0 0.0 0.0 0.0 0.0 0.0 0.0 0.0 0.0 1.0 0.0 0.0 0.0 0.0 0.0 0.0 0.0 0.0 0.0 0.0 0.0 0.0 0.0 0.0 0.0 0.0 0.0 0.0 0.0 0.0 0.0 0.0 0.0 0.0 0.0 0.0 0.0 0.0 0.0 0.0 0.0
0.0 0.0 0.0 0.0 0.0 0.0 0.0 0.0 0.0 0.0 0.0 0.0 0.0 0.0 0.0 0.0 0.0 0.0 0.0 0.0 0.0 0.0 0.9 4.0 0.0 0.0 0.0 0.0 0.0 0.0 0.0 0.0 0.0 0.0 0.0 0.0 0.0 0.0 0.5 0.5 0.0 0.0 0.0 0.0 0.0 0.0 0.0 0.0 0.0 0.0 0.0 0.0 0.0 0.0
0.0 0.0 0.0 0.0 0.0 0.0 0.0 0.0 0.0 0.0 0.0 0.0 0.0 0.0 0.0 0.0 0.0 0.0 4.5 0.0 0.0 0.0 0.8 6.7 3.7 0.0 0.0 0.0 0.0 0.0 0.0 0.0 0.0 0.0 0.0 0.0 0.0 0.0 0.9 0.4 0.0 0.0 0.0 0.0 0.0 0.0 0.0 0.0 0.0 0.0 0.0 0.0 0.0 0.0
0.0 0.0 0.0 0.0 0.0 0.0 0.0 0.0 0.0 0.0 0.0 0.0 0.0 0.0 0.0 0.0 0.0 0.0 0.0 0.0 0.0 0.0 0.0 10.3 5.7 1.8 0.0 0.0 2.2 0.0 0.0 0.0 0.0 0.0 0.3 0.1 0.3 1.2 1.5 0.0 0.0 0.0 0.0 0.0 0.0 0.0 0.0 0.0 0.0 0.0 0.0 0.0 0.0 0.0
0.0 0.0 0.0 0.0 0.0 0.0 0.0 0.0 0.0 0.0 0.0 0.0 0.0 0.0 0.0 0.0 0.0 0.0 0.0 0.0 0.0 0.0 10.5 7.9 3.5 2.1 0.0 0.1 0.5 1.1 0.0 3.2 2.6 2.0 1.2 0.1 1.2 0.7 0.1 0.0 0.0 0.0 0.0 0.0 0.0 0.0 0.0 0.0 0.0 0.0 0.0 0.0 0.0 0.0
0.0 0.0 0.0 0.0 0.0 0.0 0.0 0.0 0.0 0.0 0.0 0.0 0.0 5.1 24.0 1.3 0.0 0.0 0.0 0.0 7.5 15.8 5.7 6.8 1.0 1.9 0.2 0.2 2.9 2.2 3.3 3.4 3.5 2.4 0.8 1.5 0.6 0.1 0.0 0.0 0.0 0.0 0.0 0.0 0.0 0.0 0.0 0.0 0.0 0.0 0.0 0.0 0.0 0.0
0.0 0.0 0.0 0.0 0.0 0.0 0.0 0.0 0.0 0.0 0.0 0.0 14.1 13.6 14.5 0.0 6.1 14.4 22.4 24.5 24.6 21.3 13.2 2.6 0.3 0.1 0.1 1.3 2.4 3.6 4.6 4.2 2.8 1.4 1.0 1.1 0.5 0.1 0.0 0.1 0.0 0.0 0.0 0.0 0.0 0.0 0.0 0.0 0.0 0.0 0.0 0.0 0.0 0.0
0.0 0.0 0.0 0.0 0.0 0.0 0.0 0.0 0.0 9.2 7.4 5.4 4.1 6.7 7.4 11.1 13.4 14.5 13.6 7.8 9.5 7.2 5.9 2.7 1.1 0.6 2.4 5.3 5.2 5.1 3.5 2.8 1.7 0.9 0.9 0.5 0.0 0.0 0.1 0.3 0.1 0.0 0.0 0.0 0.0 0.0 0.0 0.0 0.0 0.0 0.0 0.0 0.0 0.0
0.0 0.0 0.0 0.0 0.0 0.0 0.0 0.0 0.0 0.0 0.0 5.6 7.1 5.3 5.0 5.0 4.6 4.3 3.7 2.7 4.2 2.8 1.3 1.8 2.0 1.6 2.4 4.9 6.1 4.0 3.6 2.6 0.5 0.5 0.1 0.0 0.0 0.1 0.4 0.1 0.1 0.0 0.0 0.0 0.0 0.0 0.0 0.0 0.0 0.0 0.0 0.0 0.0 0.0
0.0 0.0 0.0 0.0 0.0 0.0 0.0 0.0 0.0 0.0 5.6 5.8 4.5 4.8 5.1 3.0 3.4 2.2 1.5 1.3 0.7 1.3 0.2 0.0 1.2 2.9 3.7 3.0 3.7 2.8 2.6 1.0 0.6 0.1 0.0 0.0 0.1 0.3 0.2 0.0 0.0 0.0 0.0 0.0 0.0 0.0 0.0 0.0 0.0 0.0 0.0 0.0 0.0 0.0
0.0 0.0 0.0 0.0 0.0 0.0 0.0 0.0 0.0 0.0 1.9 4.2 3.8 3.9 3.3 3.0 2.6 2.0 1.2 1.5 2.5 2.0 2.4 0.5 1.2 1.6 2.8 2.9 2.6 1.7 1.4 0.7 0.0 0.0 0.0 0.0 0.2 0.1 0.1 0.0 0.0 0.0 0.0 0.0 0.0 0.0 0.0 0.0 0.0 0.0 0.0 0.0 0.0 0.0
0.0 0.0 0.0 0.0 0.0 0.0 0.0 0.0 5.4 2.6 1.3 1.0 2.5 3.3 2.7 2.3 3.3 3.2 3.0 3.3 3.8 3.2 2.6 3.2 2.8 2.8 3.0 2.3 1.5 0.5 0.1 0.0 0.0 0.0 0.0 0.0 0.1 0.0 0.0 0.0 0.0 0.0 0.0 0.0 0.0 0.0 0.0 0.0 0.0 0.0 0.0 0.0 0.0 0.0
0.0 0.0 0.0 0.0 0.0 0.0 0.0 0.0 4.2 5.6 3.8 2.3 1.8 2.5 3.1 3.8 4.3 4.6 4.3 4.6 3.5 2.5 2.6 3.1 2.1 2.4 1.9 1.0 0.3 0.0 0.0 0.0 0.0 0.0 0.0 0.0 0.0 0.0 0.0 0.0 0.0 0.0 0.0 0.0 0.0 0.0 0.0 0.0 0.0 0.0 0.0 0.0 0.0 0.0
0.0 0.0 0.0 0.0 0.0 0.0 0.0 0.0 1.1 2.4 3.5 3.2 1.8 2.0 2.0 2.7 2.8 2.3 2.3 2.4 2.9 2.5 1.5 1.2 1.0 0.6 0.6 0.3 0.1 0.1 0.0 0.0 0.0 0.0 0.0 0.0 0.0 0.0 0.0 0.0 0.0 0.0 0.0 0.0 0.0 0.0 0.0 0.0 0.0 0.0 0.0 0.0 0.0 0.0
0.0 0.0 0.0 0.0 0.0 0.0 0.0 0.1 0.0 1.1 1.9 1.8 2.1 1.6 0.9 1.2 1.2 0.8 0.3 0.6 0.9 1.0 0.9 0.7 0.8 0.9 1.1 0.5 0.1 0.1 0.0 0.0 0.0 0.0 0.0 0.0 0.0 0.0 0.0 0.0 0.0 0.0 0.0 0.0 0.0 0.0 0.0 0.0 0.0 0.0 0.0 0.0 0.0 0.0
0.0 0.0 0.0 0.0 0.0 0.0 0.0 0.0 0.0 0.3 0.5 1.0 1.3 1.1 0.5 0.8 0.7 0.1 0.0 0.1 0.1 0.1 0.2 0.6 0.8 0.6 0.6 0.4 0.1 0.1 0.0 0.0 0.0 0.0 0.0 0.0 0.0 0.0 0.0 0.0 0.0 0.0 0.0 0.0 0.0 0.0 0.0 0.0 0.0 0.0 0.0 0.0 0.0 0.0
0.0 0.0 0.0 0.0 0.0 0.0 0.0 0.0 0.0 0.1 0.0 0.2 0.4 0.4 0.7 0.2 0.3 0.5 0.5 0.1 0.0 0.2 0.5 0.4 0.2 0.0 0.0 0.0 0.0 0.0 0.0 0.0 0.0 0.0 0.0 0.0 0.0 0.0 0.0 0.0 0.0 0.0 0.0 0.0 0.0 0.0 0.0 0.0 0.0 0.0 0.0 0.1 0.1 0.2
0.1 0.0 0.0 0.0 0.0 0.0 0.0 0.0 0.1 0.0 0.0 0.0 0.0 0.1 0.0 0.0 0.1 0.2 0.8 0.3 0.4 0.4 0.4 0.3 0.0 0.0 0.0 0.0 0.0 0.0 0.0 0.0 0.0 0.0 0.0 0.0 0.0 0.0 0.0 0.0 0.0 0.0 0.0 0.0 0.0 0.0 0.0 0.0 0.0 0.1 0.2 0.2 0.2 0.2
0.0 0.3 0.0 1.3 0.3 0.0 0.0 0.0 0.0 0.0 0.0 0.0 0.0 0.0 0.1 0.2 0.0 0.0 0.0 0.4 0.6 0.5 0.3 0.2 0.0 0.0 0.0 0.0 0.0 0.0 0.0 0.0 0.0 0.0 0.0 0.0 0.0 0.0 0.0 0.0 0.0 0.0 0.0 0.0 0.0 0.0 0.0 0.0 0.0 0.1 0.2 0.2 0.3 0.1
0.1 0.5 0.5 0.2 0.1 0.2 0.1 0.1 0.2 0.0 0.0 0.0 0.0 0.0 0.0 0.1 0.0 0.0 0.2 0.4 0.6 0.4 0.2 0.3 0.1 0.0 0.0 0.0 0.0 0.0 0.0 0.0 0.0 0.0 0.0 0.0 0.0 0.0 0.0 0.0 0.0 0.0 0.0 0.0 0.0 0.0 0.1 0.1 0.1 0.2 0.2 0.4 0.3 0.0
3.9 2.6 0.2 0.1 0.2 0.1 0.0 0.0 0.0 0.1 0.0 0.0 0.0 0.0 0.0 0.0 0.0 0.1 0.3 0.5 0.5 0.5 0.5 0.5 0.4 0.3 0.3 0.3 0.1 0.0 0.0 0.0 0.0 0.0 0.0 0.0 0.0 0.0 0.0 0.0 0.0 0.0 0.0 0.0 0.2 0.2 0.1 0.1 0.2 0.2 0.2 0.4 0.6 0.8
2.4 1.1 0.2 0.0 0.0 0.0 0.0 0.0 0.0 0.0 0.0 0.0 0.0 0.0 0.0 0.0 0.0 0.1 0.3 0.4 0.4 0.5 0.5 0.5 0.4 0.3 0.0 0.0 0.0 0.0 0.0 0.0 0.0 0.0 0.0 0.0 0.0 0.0 0.0 0.0 0.0 0.0 0.0 0.1 0.6 0.7 0.0 0.0 0.0 0.0 0.1 0.1 0.2 0.5
0.0 0.0 0.1 0.0 0.0 0.0 0.0 0.0 0.0 0.0 0.1 0.1 0.1 0.1 0.0 0.0 0.0 0.3 0.5 0.7 0.3 0.3 0.1 0.0 0.0 0.0 0.0 0.0 0.0 0.0 0.0 0.0 0.0 0.0 0.0 0.0 0.0 0.0 0.0 0.0 0.6 0.5 0.6 0.5 0.5 0.7 0.8 0.4 0.3 0.3 0.4 0.1 0.1 0.9
0.0 0.0 0.0 0.0 0.0 0.0 0.0 0.0 0.0 0.3 0.6 1.0 0.1 0.1 0.0 0.2 0.7 0.7 0.8 0.7 0.5 0.1 0.0 0.0 0.0 0.0 0.0 0.0 0.0 0.0 0.0 0.0 0.0 0.0 0.0 0.0 0.0 0.0 0.0 0.3 0.7 0.6 0.8 0.3 1.0 1.3 0.8 0.9 0.8 0.7 0.8 0.9 0.3 0.0
0.0 0.0 0.0 0.0 0.0 0.0 0.0 0.0 0.1 0.4 0.5 0.8 0.8 0.6 1.1 0.9 0.6 0.6 0.5 0.4 0.3 0.2 0.0 0.0 0.0 0.0 0.0 0.0 0.0 0.0 0.0 0.0 0.0 0.0 0.0 0.0 0.0 0.0 0.0 0.2 0.3 0.2 0.2 0.2 0.0 0.6 1.3 1.6 2.0 1.9 1.0 0.5 0.2 0.1
0.0 0.1 0.0 0.0 0.0 0.0 0.1 0.1 0.3 0.4 0.3 0.4 0.2 0.1 0.1 0.3 0.5 0.5 0.3 0.2 0.1 0.0 0.1 0.1 0.1 0.0 0.0 0.0 0.0 0.0 0.0 0.0 0.0 0.0 0.2 0.0 0.0 0.0 0.0 0.1 0.0 0.0 0.1 0.3 0.4 0.1 0.2 0.3 0.1 0.1 0.3 0.2 0.2 0.2
0.1 0.0 0.0 0.1 0.1 0.3 0.3 0.3 0.3 0.3 0.2 0.2 0.1 0.0 0.0 0.0 0.4 0.4 0.2 0.3 0.3 0.3 0.1 0.1 0.1 0.0 0.0 0.0 0.0 0.0 0.0 0.0 0.0 0.0 0.2 0.4 0.2 0.1 0.1 0.1 0.1 0.5 0.8 0.8 0.7 0.6 0.5 0.5 0.5 0.4 0.3 0.3 0.2 0.2
0.0 0.0 0.0 0.0 0.0 0.0 0.0 0.0 0.2 0.2 0.2 0.2 0.2 0.2 0.3 0.1 0.1 0.3 0.6 0.4 0.2 0.1 0.1 0.0 0.0 0.0 0.0 0.0 0.0 0.0 0.1 0.0 0.0 0.0 0.0 0.2 0.3 0.2 0.2 0.7 0.9 1.2 0.9 0.8 0.8 0.7 0.7 0.6 0.5 0.4 0.3 0.3 0.3 0.2
0.0 0.0 0.0 0.0 0.0 0.0 0.0 0.0 0.0 0.1 0.0 0.1 0.2 0.2 0.2 0.1 0.4 0.6 0.6 0.3 0.1 0.1 0.1 0.0 0.0 0.0 0.0 0.0 0.0 0.0 0.0 0.0 0.0 0.1 0.3 0.8 1.2 1.4 1.6 1.6 1.1 0.9 0.8 0.8 0.7 0.7 0.6 0.5 0.4 0.4 0.4 0.3 0.3 0.3

GFSWCAN_prec_snow24_198.txt.gz
Snowfall_Accumulation
0.0 0.0 0.0 0.0 0.0 0.0 0.0 0.0 0.0 0.0 0.0 0.0 0.0 0.0 0.0 0.0 0.0 0.0 0.0 0.0 0.0 0.9 0.2 0.0 0.0 0.5 0.5 0.5 0.7 0.0 0.0 0.0 0.0 0.0 0.0 0.0 0.0 0.0 0.0 0.0 0.0 0.0 0.0 0.0 0.0 0.0 0.0 0.0 0.0 0.0 0.0 0.0 0.0 0.0
0.0 0.0 0.0 0.0 0.0 0.0 0.0 0.0 0.0 0.0 0.0 0.0 0.0 0.0 0.0 0.0 0.0 0.0 0.0 0.0 0.0 0.0 0.5 0.0 0.0 0.0 0.0 0.0 0.1 0.2 0.6 0.0 0.8 0.7 0.4 0.1 0.0 0.0 0.0 0.0 0.0 0.0 0.0 0.0 0.0 0.0 0.0 0.0 0.0 0.0 0.0 0.0 0.0 0.0
0.0 0.0 0.0 0.0 0.0 0.0 0.0 0.0 0.0 0.0 0.0 0.0 0.0 0.0 0.0 0.0 0.0 0.0 0.0 0.0 0.0 0.8 0.0 0.0 0.0 0.0 0.0 0.0 0.0 1.4 0.0 0.0 0.0 0.0 2.2 0.9 0.2 0.0 0.0 0.0 0.0 0.0 0.0 0.0 0.0 0.0 0.0 0.0 0.0 0.0 0.0 0.0 0.0 0.0
0.0 0.0 0.0 0.0 0.0 0.0 0.0 0.0 0.0 0.0 0.0 0.0 0.0 0.0 0.0 0.0 0.0 0.0 0.0 0.0 0.0 1.1 5.4 0.8 0.0 0.0 0.0 0.0 0.0 0.0 0.0 0.0 0.0 0.0 1.7 2.4 0.9 0.0 0.0 0.0 0.0 0.0 0.0 0.0 0.0 0.0 0.0 0.0 0.0 0.0 0.0 0.0 0.0 0.0
0.0 0.0 0.0 0.0 0.0 0.0 0.0 0.0 0.0 0.0 0.0 0.0 0.0 0.0 0.0 0.0 0.0 0.0 0.0 0.0 0.0 0.6 3.8 0.8 0.0 0.0 0.0 0.0 0.0 0.0 0.0 0.0 0.0 1.1 1.2 1.5 0.0 0.5 0.3 0.0 0.0 0.0 0.0 0.0 0.0 0.0 0.0 0.0 0.0 0.0 0.0 0.0 0.0 0.0
0.0 0.0 0.0 0.0 0.0 0.0 0.0 0.0 0.0 0.0 0.0 0.0 0.0 0.0 0.0 0.0 0.0 0.0 3.0 0.0 0.0 0.0 2.4 6.3 0.0 0.0 0.0 0.0 0.0 0.0 0.0 0.0 0.0 0.0 2.7 0.0 0.0 0.2 0.2 1.1 0.0 0.0 0.0 0.0 0.0 0.0 0.0 0.0 0.0 0.0 0.0 0.0 0.0 0.0
0.0 0.0 0.0 0.0 0.0 0.0 0.0 0.0 0.0 0.0 0.0 0.0 0.0 0.0 0.0 0.0 0.0 1.4 7.6 0.0 0.0 0.0 4.8 12.4 6.7 0.0 0.0 0.0 0.0 0.0 0.0 0.0 0.0 2.1 2.4 0.0 0.0 0.5 1.6 1.4 0.0 0.0 0.0 0.0 0.0 0.0 0.0 0.0 0.0 0.0 0.0 0.0 0.0 0.0
0.0 0.0 0.0 0.0 0.0 0.0 0.0 0.0 0.0 0.0 0.0 0.0 0.0 0.0 0.0 0.0 0.0 0.0 0.0 0.0 0.0 0.0 5.6 16.9 7.8 1.8 0.0 0.1 2.3 0.0 0.3 0.1 0.0 2.0 0.1 0.0 0.2 1.4 2.5 0.9 0.1 0.0 0.0 0.0 0.0 0.0 0.0 0.0 0.0 0.0 0.0 0.0 0.0 0.0
0.0 0.0 0.0 0.0 0.0 0.0 0.0 0.0 0.0 0.0 0.0 0.0 0.0 0.0 0.0 0.0 0.1 0.0 0.0 0.0 0.0 0.0 22.8 14.5 5.1 2.5 0.0 0.3 0.7 1.6 0.0 5.0 2.9 2.2 2.3 0.9 1.5 1.9 0.1 0.0 0.0 0.0 0.0 0.0 0.0 0.0 0.0 0.0 0.0 0.0 0.0 0.0 0.0 0.0
0.0 0.0 0.0 0.0 0.0 0.0 0.0 0.0 0.0 0.0 0.0 0.0 0.0 5.1 23.5 1.3 0.0 0.0 0.0 3.3 12.0 22.1 13.9 10.4 1.3 2.0 0.3 0.6 3.4 3.1 4.1 6.2 6.2 4.5 0.8 2.7 1.4 0.1 0.0 0.0 0.0 0.0 0.0 0.0 0.0 0.0 0.0 0.0 0.0 0.0 0.0 0.0 0.0 0.0
0.0 0.0 0.0 0.0 0.0 0.0 0.0 0.0 0.0 0.0 0.0 0.0 14.1 13.7 14.5 0.0 7.2 17.3 24.7 27.8 29.3 25.9 16.9 4.0 0.5 0.3 0.6 2.2 3.3 4.7 6.1 6.7 5.4 2.5 2.6 2.7 0.9 0.1 0.0 0.1 0.0 0.0 0.0 0.0 0.0 0.0 0.0 0.0 0.0 0.0 0.0 0.0 0.0 0.0
0.0 0.0 0.0 0.0 0.0 0.0 0.0 0.0 0.0 9.2 7.4 5.4 4.1 6.7 8.0 12.0 15.6 17.3 15.8 9.4 10.9 8.6 6.8 3.1 1.4 0.7 3.0 5.8 6.8 7.4 6.4 5.3 4.0 0.9 2.1 1.4 0.0 0.0 0.1 0.3 0.1 0.0 0.0 0.0 0.0 0.0 0.0 0.0 0.0 0.0 0.0 0.0 0.0 0.0
0.0 0.0 0.0 0.0 0.0 0.0 0.0 0.0 0.0 0.0 0.0 5.6 7.6 6.6 5.9 5.4 5.9 5.6 4.7 3.9 5.0 3.1 1.7 2.0 3.0 2.7 4.7 6.9 9.5 6.5 6.2 5.5 2.2 2.6 0.7 0.0 0.1 0.2 0.4 0.1 0.1 0.0 0.0 0.0 0.0 0.0 0.0 0.0 0.0 0.0 0.0 0.0 0.0 0.0
0.0 0.0 0.0 0.0 0.0 0.0 0.0 0.0 0.0 0.0 5.7 6.3 5.5 5.4 6.2 3.7 3.9 2.4 1.8 1.6 0.7 1.4 0.3 0.5 4.0 5.4 5.5 4.9 4.5 7.0 3.9 1.0 1.2 0.1 0.5 0.0 0.1 0.3 0.2 0.0 0.0 0.0 0.0 0.0 0.0 0.0 0.0 0.1 0.0 0.0 0.0 0.0 0.0 0.0
0.0 0.0 0.0 0.0 0.0 0.0 0.0 0.0 0.0 0.0 2.3 5.3 4.9 4.7 3.8 3.2 2.8 2.3 1.4 1.8 2.7 2.4 3.3 2.9 4.4 4.1 5.0 4.7 4.3 3.2 3.4 1.9 0.4 0.0 0.0 0.0 0.2 0.2 0.2 0.1 0.0 0.0 0.0 0.1 0.3 0.4 0.4 0.2 0.1 0.0 0.0 0.0 0.0 0.0
0.0 0.0 0.0 0.0 0.0 0.0 0.0 0.0 0.0 0.4 1.8 2.0 3.2 3.8 2.7 2.3 3.3 3.6 3.0 3.5 4.2 4.2 4.6 6.7 5.7 4.7 5.3 3.9 2.3 1.0 0.1 0.7 0.5 0.0 0.2 0.3 0.6 0.6 0.7 0.7 0.8 0.9 0.9 0.8 0.6 0.4 0.3 0.2 0.1 0.0 0.0 0.0 0.0 0.0
0.0 0.0 0.0 0.0 0.0 0.0 0.0 0.0 0.8 1.7 2.5 2.2 2.4 2.9 3.8 4.4 5.1 5.6 5.0 5.0 4.3 4.8 4.6 5.9 5.0 4.1 2.9 1.7 0.9 0.2 0.1 0.0 0.3 1.0 1.2 0.9 1.0 1.3 1.3 1.4 1.4 1.2 0.8 0.5 0.3 0.2 0.1 0.0 0.0 0.0 0.0 0.0 0.0 0.0
0.0 0.0 0.0 0.0 0.0 0.0 0.0 0.0 0.3 1.2 2.4 3.1 2.2 2.1 2.1 3.7 3.9 3.1 3.1 3.7 4.6 4.9 3.6 3.2 2.8 1.6 1.2 0.6 0.2 0.3 0.4 0.7 1.0 1.4 2.4 2.8 2.3 2.1 1.5 1.1 0.6 0.3 0.2 0.1 0.1 0.0 0.0 0.0 0.0 0.0 0.0 0.0 0.0 0.0
0.0 0.0 0.0 0.0 0.0 0.0 0.0 0.0 0.7 1.6 2.2 2.3 2.8 2.0 1.2 1.7 2.1 2.3 2.1 2.7 3.1 2.7 2.5 2.1 2.4 2.4 2.5 1.7 1.1 1.2 1.3 1.1 1.7 2.1 2.8 2.2 1.3 0.7 0.5 0.2 0.1 0.0 0.0 0.0 0.0 0.0 0.0 0.0 0.0 0.0 0.0 0.0 0.0 0.0
0.0 0.0 0.0 0.0 0.0 0.0 0.0 0.3 0.4 1.1 1.1 1.6 2.0 1.2 0.6 1.6 1.8 1.1 0.7 0.7 0.8 0.9 1.6 2.5 3.4 3.8 4.4 4.5 3.0 2.6 2.8 2.4 1.9 1.8 1.7 1.2 0.6 0.2 0.0 0.0 0.0 0.0 0.0 0.0 0.0 0.0 0.0 0.0 0.0 0.0 0.0 0.0 0.0 0.0
0.0 0.0 0.0 0.0 0.0 0.0 0.0 0.0 0.3 0.3 0.3 0.9 0.9 0.5 1.3 1.0 1.0 1.1 1.1 0.1 0.1 1.3 3.0 3.6 3.6 3.9 2.9 2.8 3.0 2.6 2.4 1.7 1.3 0.8 0.6 0.3 0.1 0.0 0.0 0.0 0.0 0.0 0.0 0.0 0.0 0.0 0.0 0.0 0.0 0.0 0.0 0.1 0.1 0.2
0.1 0.0 0.0 0.0 0.0 0.0 0.0 0.0 0.1 0.0 0.0 0.3 0.2 0.4 0.5 0.5 0.6 0.6 0.9 0.4 1.6 2.0 3.1 2.3 1.2 1.3 0.8 0.7 0.5 0.4 0.5 0.2 0.2 0.2 0.1 0.1 0.0 0.0 0.0 0.0 0.0 0.0 0.0 0.0 0.0 0.0 0.0 0.0 0.0 0.1 0.2 0.1 0.1 0.1
0.0 0.0 0.0 0.0 0.0 0.0 0.0 0.0 0.0 0.0 0.0 0.0 0.1 0.2 0.4 0.5 0.0 0.0 0.1 1.1 1.8 2.3 1.9 0.8 0.1 0.0 0.0 0.0 0.0 0.0 0.0 0.0 0.0 0.0 0.0 0.0 0.0 0.0 0.0 0.0 0.0 0.0 0.0 0.0 0.0 0.0 0.0 0.0 0.0 0.0 0.1 0.0 0.0 0.0
0.1 0.0 0.0 0.0 0.0 0.0 0.0 0.0 0.0 0.0 0.0 0.0 0.1 0.2 0.4 0.4 0.0 0.0 0.4 1.0 2.0 2.0 1.2 1.2 0.2 0.0 0.0 0.0 0.0 0.0 0.0 0.0 0.0 0.0 0.0 0.0 0.0 0.0 0.0 0.0 0.0 0.0 0.0 0.0 0.0 0.0 0.0 0.0 0.0 0.0 0.0 0.1 0.0 0.0
0.0 0.0 0.0 0.0 0.1 0.0 0.0 0.0 0.0 0.0 0.0 0.0 0.0 0.1 0.2 0.2 0.0 0.1 0.5 1.1 1.3 1.3 1.4 1.4 1.1 0.5 0.4 0.3 0.1 0.0 0.0 0.0 0.0 0.0 0.0 0.0 0.0 0.0 0.0 0.0 0.0 0.0 0.0 0.0 0.0 0.0 0.0 0.0 0.0 0.0 0.0 0.1 0.2 0.4
0.0 0.0 0.0 0.0 0.0 0.0 0.0 0.0 0.0 0.0 0.0 0.0 0.0 0.0 0.0 0.0 0.0 0.4 0.7 1.0 1.1 1.2 1.2 0.9 0.6 0.3 0.0 0.0 0.0 0.0 0.0 0.0 0.0 0.0 0.0 0.0 0.0 0.0 0.0 0.0 0.0 0.0 0.0 0.0 0.2 0.3 0.0 0.0 0.0 0.0 0.0 0.0 0.1 0.4
0.0 0.0 0.1 0.0 0.0 0.0 0.0 0.0 0.0 0.0 0.1 0.0 0.1 0.1 0.0 0.1 0.1 0.6 0.9 1.2 0.9 0.9 0.5 0.2 0.0 0.0 0.0 0.0 0.0 0.0 0.0 0.0 0.0 0.0 0.0 0.0 0.0 0.0 0.0 0.0 0.0 0.0 0.1 0.1 0.2 0.3 0.4 0.1 0.1 0.1 0.2 0.1 0.1 0.6
0.0 0.0 0.0 0.0 0.0 0.0 0.1 0.0 0.0 0.2 0.5 1.0 0.1 0.1 0.0 0.2 0.8 0.9 1.1 1.1 0.9 0.5 0.0 0.0 0.0 0.0 0.0 0.0 0.0 0.0 0.0 0.0 0.0 0.0 0.0 0.0 0.0 0.0 0.0 0.0 0.0 0.0 0.2 0.1 0.4 0.5 0.4 0.4 0.4 0.4 0.4 0.6 0.1 0.2
0.0 0.0 0.0 0.0 0.0 0.0 0.1 0.1 0.3 0.5 0.6 0.9 0.8 0.6 1.2 0.9 0.8 0.8 0.7 0.6 0.4 0.2 0.0 0.0 0.0 0.0 0.0 0.0 0.0 0.0 0.0 0.0 0.0 0.0 0.0 0.0 0.0 0.0 0.0 0.0 0.0 0.1 0.1 0.0 0.0 0.4 0.8 1.1 1.6 1.7 1.1 0.6 0.3 0.2
0.0 0.1 0.0 0.0 0.0 0.0 0.2 0.2 0.4 0.6 0.3 0.4 0.2 0.1 0.1 0.4 0.7 0.7 0.3 0.2 0.1 0.0 0.0 0.0 0.0 0.0 0.0 0.0 0.0 0.0 0.0 0.0 0.0 0.0 0.0 0.0 0.0 0.0 0.0 0.0 0.0 0.0 0.0 0.1 0.1 0.0 0.2 0.3 0.1 0.1 0.4 0.3 0.3 0.3
0.1 0.0 0.0 0.1 0.1 0.3 0.4 0.4 0.4 0.3 0.2 0.2 0.1 0.0 0.0 0.0 0.5 0.5 0.2 0.2 0.2 0.1 0.0 0.0 0.0 0.0 0.0 0.0 0.0 0.0 0.0 0.0 0.0 0.0 0.2 0.3 0.1 0.0 0.0 0.0 0.0 0.2 0.4 0.5 0.5 0.5 0.5 0.5 0.5 0.4 0.3 0.3 0.2 0.2
0.0 0.0 0.0 0.0 0.0 0.0 0.0 0.1 0.2 0.2 0.2 0.2 0.2 0.2 0.3 0.1 0.1 0.3 0.5 0.2 0.1 0.0 0.0 0.0 0.0 0.0 0.0 0.0 0.0 0.0 0.1 0.0 0.0 0.0 0.0 0.0 0.1 0.1 0.1 0.5 0.6 1.1 0.9 0.8 0.8 0.7 0.7 0.6 0.4 0.3 0.3 0.3 0.2 0.1
0.0 0.0 0.0 0.0 0.0 0.0 0.0 0.0 0.0 0.1 0.1 0.2 0.4 0.4 0.4 0.2 0.4 0.5 0.7 0.4 0.1 0.1 0.1 0.0 0.0 0.0 0.0 0.0 0.0 0.0 0.0 0.0 0.0 0.1 0.4 0.7 0.9 1.1 1.3 1.5 1.2 0.8 0.8 0.8 0.6 0.6 0.5 0.5 0.4 0.3 0.3 0.2 0.1 0.1

GFSWCAN_prec_snow24_201.txt.gz
Snowfall_Accumulation
0.0 0.0 0.0 0.0 0.0 0.0 0.0 0.0 0.0 0.0 0.0 0.0 0.0 0.0 0.0 0.0 0.0 0.0 0.0 0.0 0.0 1.6 0.2 0.0 0.0 0.5 0.5 0.6 0.9 0.0 0.0 0.1 0.0 1.2 0.9 0.0 0.2 0.0 0.0 0.0 0.0 0.0 0.0 0.0 0.0 0.0 0.0 0.0 0.0 0.0 0.0 0.0 0.0 0.0
0.0 0.0 0.0 0.0 0.0 0.0 0.0 0.0 0.0 0.0 0.0 0.0 0.0 0.0 0.0 0.0 0.0 0.0 0.0 0.0 0.0 0.7 1.0 0.0 0.0 0.0 0.0 0.0 0.4 0.6 0.6 0.1 1.1 0.7 0.4 2.1 1.2 0.3 0.0 0.0 0.0 0.0 0.0 0.0 0.0 0.0 0.0 0.0 0.0 0.0 0.0 0.0 0.0 0.0
0.0 0.0 0.0 0.0 0.0 0.0 0.0 0.0 0.0 0.0 0.0 0.0 0.0 0.0 0.0 0.0 0.0 0.0 0.0 0.0 0.0 1.1 0.0 0.0 0.0 0.0 0.0 0.0 0.0 1.7 0.0 0.0 0.0 0.0 2.2 2.0 1.6 0.9 0.7 0.4 0.0 0.0 0.0 0.0 0.0 0.0 0.0 0.0 0.0 0.0 0.0 0.0 0.0 0.0
0.0 0.0 0.0 0.0 0.0 0.0 0.0 0.0 0.0 0.0 0.0 0.0 0.0 0.0 0.0 0.0 0.0 0.0 0.0 0.0 0.0 1.1 6.9 1.3 0.0 0.0 0.0 0.0 0.0 0.0 0.0 0.0 0.0 0.0 1.9 2.9 1.3 0.2 0.0 0.0 0.0 0.2 0.2 0.1 0.0 0.0 0.0 0.0 0.0 0.0 0.0 0.0 0.0 0.0
0.0 0.0 0.0 0.0 0.0 0.0 0.0 0.0 0.0 0.0 0.0 0.0 0.0 0.0 0.0 0.0 0.0 0.0 0.0 0.0 0.0 1.2 3.8 0.8 0.0 0.0 0.0 0.0 0.0 0.0 0.0 0.1 0.1 1.3 1.6 1.7 0.0 0.6 0.3 0.1 0.0 0.0 0.0 0.1 0.1 0.0 0.0 0.0 0.0 0.0 0.0 0.0 0.0 0.0
0.0 0.0 0.0 0.0 0.0 0.0 0.0 0.0 0.0 0.0 0.0 0.0 0.0 0.0 0.0 0.0 0.0 0.0 3.3 0.0 0.0 0.0 4.0 7.4 0.0 0.0 0.0 0.0 0.0 0.0 0.0 0.2 0.0 1.1 3.4 0.1 0.0 0.2 0.5 1.1 0.0 0.0 0.0 0.0 0.0 0.0 0.0 0.0 0.0 0.0 0.0 0.0 0.0 0.0
0.0 0.0 0.0 0.0 0.0 0.0 0.0 0.0 0.0 0.0 0.0 0.0 0.0 0.0 0.0 0.0 0.0 1.8 7.9 0.0 0.0 0.0 6.3 12.4 6.2 0.0 0.0 0.0 0.0 0.0 0.0 0.0 0.1 2.2 2.5 0.0 0.0 0.9 2.4 1.4 0.0 0.0 0.0 0.0 0.0 0.0 0.0 0.0 0.0 0.0 0.0 0.0 0.0 0.0
0.0 0.0 0.0 0.0 0.0 0.0 0.0 0.0 0.0 0.0 0.0 0.0 0.0 0.0 0.0 0.0 0.0 0.1 0.0 0.0 0.0 0.0 6.7 16.9 7.6 1.8 0.0 0.1 2.2 0.0 0.3 0.1 0.0 2.0 0.1 0.0 0.2 1.5 2.5 0.9 0.1 0.0 0.0 0.0 0.0 0.0 0.0 0.0 0.0 0.0 0.0 0.0 0.0 0.0
0.0 0.0 0.0 0.0 0.0 0.0 0.0 0.0 0.0 0.0 0.0 0.0 0.0 0.0 0.0 0.0 0.1 0.0 0.0 0.0 0.0 1.7 24.4 15.1 5.4 2.5 0.0 0.3 0.7 1.6 0.0 5.5 3.3 2.4 2.3 1.0 1.6 2.2 0.1 0.0 0.0 0.0 0.0 0.0 0.0 0.0 0.0 0.0 0.0 0.0 0.0 0.0 0.0 0.0
0.0 0.0 0.0 0.0 0.0 0.0 0.0 0.0 0.0 0.0 0.0 0.0 0.0 5.1 22.1 0.0 0.0 0.0 0.0 3.3 12.0 20.7 13.6 10.4 1.3 2.0 0.3 0.8 4.3 4.7 6.1 7.8 7.3 4.8 0.8 2.9 1.7 0.1 0.0 0.0 0.0 0.0 0.0 0.0 0.0 0.0 0.0 0.0 0.0 0.0 0.0 0.0 0.0 0.0
0.0 0.0 0.0 0.0 0.0 0.0 0.0 0.0 0.0 0.0 0.0 0.0 13.9 13.3 14.5 0.0 7.2 16.8 24.1 27.3 28.8 26.5 17.3 4.2 1.2 0.9 0.9 3.2 4.6 6.2 7.4 7.9 6.7 2.7 2.6 2.8 0.9 0.1 0.0 0.1 0.0 0.0 0.0 0.0 0.0 0.0 0.0 0.0 0.0 0.0 0.0 0.0 0.0 0.0
0.0 0.0 0.0 0.0 0.0 0.0 0.0 0.0 0.0 9.2 7.4 5.4 4.1 6.7 8.0 11.9 16.0 17.9 15.7 10.5 13.3 10.6 8.2 4.9 1.3 0.7 2.9 6.5 8.8 9.5 7.4 5.3 4.0 0.9 2.3 1.4 0.0 0.0 0.1 0.3 0.1 0.0 0.0 0.0 0.0 0.0 0.0 0.0 0.0 0.0 0.0 0.0 0.0 0.0
0.0 0.0 0.0 0.0 0.0 0.0 0.0 0.0 0.0 0.0 0.0 5.6 7.6 6.6 6.0 5.4 6.3 6.1 5.1 3.9 5.4 3.4 1.9 2.0 3.0 2.7 4.7 7.9 10.7 7.7 7.3 6.1 2.2 2.7 0.7 0.0 0.1 0.2 0.4 0.1 0.1 0.0 0.0 0.0 0.0 0.0 0.0 0.0 0.0 0.0 0.1 0.1 0.1 0.2
0.0 0.0 0.0 0.0 0.0 0.0 0.0 0.0 0.0 0.0 5.8 6.3 5.5 5.4 6.2 3.7 3.9 2.5 2.1 1.8 0.8 1.5 0.3 0.5 4.3 6.0 5.5 6.4 5.5 7.6 3.9 1.2 1.5 0.3 0.5 0.0 0.1 0.3 0.2 0.0 0.0 0.0 0.0 0.0 0.0 0.0 0.0 0.1 0.0 0.0 0.3 0.5 0.5 0.3
0.0 0.0 0.0 0.0 0.0 0.0 0.0 0.0 0.0 0.0 2.3 5.3 5.1 4.8 3.8 3.2 2.8 2.3 1.4 1.8 2.7 2.4 3.3 3.2 4.4 4.1 5.0 5.9 5.0 3.5 3.5 1.9 0.4 0.0 0.0 0.0 0.2 0.2 0.4 0.6 0.0 0.0 0.0 0.1 0.3 0.4 0.4 0.2 1.0 1.1 0.9 0.5 0.3 0.1
0.0 0.0 0.0 0.0 0.0 0.0 0.0 0.0 0.0 0.4 1.4 2.1 3.3 3.9 2.7 2.3 3.3 3.6 3.0 3.6 4.2 4.5 4.9 7.2 6.1 5.4 6.3 4.5 2.6 1.2 0.4 0.8 0.6 0.3 0.6 0.8 1.1 1.1 1.5 2.5 3.0 2.7 2.3 2.3 2.4 2.6 2.7 1.9 1.1 0.4 0.3 0.2 0.0 0.1
0.0 0.0 0.0 0.0 0.0 0.0 0.0 0.0 0.0 0.7 1.8 1.9 2.4 3.1 4.4 4.6 5.1 5.7 5.0 5.0 4.6 5.6 5.0 6.5 6.0 4.9 3.9 2.6 1.4 0.5 0.5 0.4 0.9 1.9 2.2 2.1 2.1 2.4 2.6 3.5 4.3 4.4 3.8 2.7 2.1 1.5 1.0 0.5 0.3 0.2 0.2 0.2 0.1 0.0
0.0 0.0 0.0 0.0 0.0 0.0 0.0 0.0 0.3 1.3 2.4 3.2 2.4 2.4 2.3 3.9 4.3 3.1 3.1 3.7 5.4 5.7 4.6 4.0 3.2 2.1 1.7 1.0 0.6 0.8 1.0 1.4 1.8 2.3 3.5 4.2 3.9 4.1 3.7 3.9 3.4 2.5 1.6 0.9 0.6 0.4 0.3 0.3 0.2 0.2 0.1 0.0 0.0 0.0
0.0 0.0 0.0 0.0 0.0 0.0 0.0 0.0 0.7 1.9 2.4 2.5 3.1 2.3 1.2 1.9 2.1 2.5 2.5 3.2 4.1 3.4 3.1 2.4 2.7 2.8 2.9 2.2 2.0 1.8 1.9 1.8 2.6 3.1 4.4 4.5 3.4 2.9 2.5 2.0 1.7 1.1 0.7 0.5 0.3 0.2 0.2 0.1 0.1 0.0 0.0 0.0 0.0 0.0
0.0 0.0 0.0 0.0 0.0 0.0 0.0 0.3 0.6 1.4 1.3 1.8 2.3 1.3 0.6 2.0 2.2 1.3 1.1 1.0 1.1 1.1 1.7 2.7 3.8 4.4 5.1 5.6 4.2 3.2 3.6 3.4 2.5 2.6 3.3 2.9 1.9 1.0 0.5 0.3 0.2 0.1 0.1 0.0 0.0 0.0 0.0 0.0 0.0 0.0 0.0 0.0 0.0 0.0
0.0 0.0 0.0 0.0 0.0 0.0 0.0 0.0 0.3 0.5 0.5 1.3 1.2 0.5 1.5 1.1 1.1 0.9 0.9 0.1 0.1 1.5 3.5 4.5 4.4 5.0 4.3 4.0 4.4 3.9 3.9 2.4 1.7 1.1 1.0 0.6 0.3 0.1 0.0 0.0 0.0 0.0 0.0 0.0 0.0 0.0 0.0 0.0 0.0 0.0 0.0 0.1 0.1 0.1
0.0 0.0 0.0 0.0 0.0 0.0 0.0 0.0 0.1 0.0 0.1 0.7 0.6 0.6 0.8 0.9 0.8 0.6 0.6 0.1 1.8 2.6 3.9 3.9 2.8 2.8 1.7 1.7 1.2 1.0 0.9 0.2 0.2 0.2 0.1 0.1 0.0 0.0 0.0 0.0 0.0 0.0 0.0 0.0 0.0 0.0 0.0 0.0 0.0 0.1 0.1 0.0 0.0 0.0
0.0 0.0 0.0 0.0 0.0 0.0 0.0 0.0 0.0 0.0 0.0 0.3 0.5 0.5 0.8 0.8 0.0 0.0 0.1 1.3 2.4 3.3 2.8 1.6 0.8 0.0 0.0 0.0 0.0 0.0 0.0 0.0 0.0 0.0 0.0 0.0 0.0 0.0 0.0 0.0 0.0 0.0 0.0 0.0 0.0 0.0 0.0 0.0 0.0 0.0 0.0 0.0 0.0 0.0
0.1 0.0 0.0 0.0 0.0 0.0 0.0 0.0 0.0 0.0 0.0 0.1 0.4 0.5 0.7 0.6 0.0 0.0 0.5 1.3 2.7 2.9 1.7 1.7 0.4 0.1 0.0 0.0 0.0 0.0 0.0 0.0 0.0 0.0 0.0 0.0 0.0 0.0 0.0 0.0 0.0 0.0 0.0 0.0 0.0 0.0 0.0 0.0 0.0 0.0 0.0 0.0 0.0 0.0
0.0 0.0 0.0 0.0 0.0 0.0 0.0 0.0 0.0 0.0 0.0 0.0 0.2 0.3 0.4 0.4 0.0 0.1 0.7 1.5 1.7 1.7 2.0 1.8 1.4 0.5 0.4 0.3 0.1 0.0 0.0 0.0 0.0 0.0 0.0 0.0 0.0 0.0 0.0 0.0 0.0 0.0 0.0 0.0 0.0 0.0 0.0 0.0 0.0 0.0 0.0 0.0 0.1 0.3
0.0 0.0 0.0 0.0 0.0 0.0 0.0 0.0 0.0 0.0 0.0 0.0 0.1 0.2 0.2 0.0 0.0 0.5 0.8 1.2 1.4 1.5 1.4 1.0 0.7 0.3 0.0 0.0 0.0 0.0 0.0 0.0 0.0 0.0 0.0 0.0 0.0 0.0 0.0 0.0 0.0 0.0 0.0 0.0 0.1 0.2 0.0 0.0 0.0 0.0 0.0 0.0 0.0 0.3
0.0 0.0 0.1 0.0 0.0 0.0 0.0 0.0 0.0 0.0 0.0 0.0 0.1 0.1 0.0 0.1 0.2 0.7 1.1 1.4 1.1 1.1 0.6 0.2 0.0 0.0 0.0 0.0 0.0 0.0 0.0 0.0 0.0 0.0 0.0 0.0 0.0 0.0 0.0 0.0 0.0 0.1 0.1 0.0 0.1 0.2 0.2 0.0 0.0 0.0 0.1 0.0 0.1 0.4
0.0 0.0 0.0 0.0 0.0 0.0 0.1 0.0 0.0 0.3 0.3 0.7 0.0 0.0 0.0 0.2 0.9 1.1 1.2 1.3 1.1 0.6 0.0 0.0 0.0 0.0 0.0 0.0 0.0 0.0 0.0 0.0 0.0 0.0 0.0 0.0 0.0 0.0 0.0 0.0 0.0 0.0 0.0 0.0 0.3 0.3 0.2 0.3 0.2 0.2 0.2 0.4 0.1 0.2
0.0 0.0 0.0 0.0 0.0 0.0 0.1 0.1 0.3 0.5 0.6 0.8 0.7 0.6 1.2 0.9 0.8 0.9 0.8 0.7 0.5 0.2 0.0 0.0 0.0 0.0 0.0 0.0 0.0 0.0 0.0 0.0 0.0 0.0 0.0 0.0 0.0 0.0 0.0 0.0 0.0 0.0 0.0 0.0 0.0 0.4 0.8 1.0 1.5 1.6 1.1 0.6 0.3 0.2
0.0 0.1 0.0 0.0 0.0 0.0 0.3 0.3 0.4 0.6 0.3 0.4 0.2 0.1 0.1 0.5 0.7 0.7 0.4 0.3 0.2 0.1 0.0 0.0 0.0 0.0 0.0 0.0 0.0 0.0 0.0 0.0 0.0 0.0 0.0 0.0 0.0 0.0 0.0 0.0 0.0 0.0 0.0 0.0 0.0 0.0 0.2 0.3 0.1 0.1 0.4 0.3 0.3 0.3
0.1 0.0 0.0 0.0 0.0 0.3 0.4 0.5 0.5 0.3 0.2 0.2 0.1 0.0 0.0 0.0 0.5 0.4 0.3 0.2 0.2 0.1 0.0 0.0 0.0 0.0 0.0 0.0 0.0 0.0 0.0 0.0 0.0 0.0 0.2 0.3 0.1 0.0 0.0 0.0 0.0 0.1 0.3 0.4 0.4 0.5 0.5 0.5 0.5 0.4 0.3 0.2 0.2 0.2
0.0 0.0 0.0 0.0 0.0 0.1 0.1 0.1 0.3 0.2 0.2 0.2 0.2 0.2 0.3 0.1 0.1 0.3 0.5 0.2 0.1 0.0 0.0 0.0 0.0 0.0 0.0 0.0 0.0 0.0 0.1 0.0 0.0 0.0 0.0 0.0 0.0 0.0 0.0 0.4 0.4 0.9 0.8 0.8 0.7 0.7 0.6 0.5 0.4 0.3 0.2 0.2 0.1 0.0
0.0 0.0 0.0 0.0 0.0 0.0 0.0 0.0 0.0 0.2 0.1 0.2 0.4 0.4 0.4 0.2 0.3 0.5 0.6 0.4 0.1 0.1 0.1 0.0 0.0 0.0 0.0 0.0 0.0 0.0 0.0 0.0 0.0 0.1 0.4 0.7 0.9 1.0 1.1 1.4 1.1 0.7 0.7 0.7 0.5 0.5 0.4 0.3 0.3 0.2 0.2 0.1 0.0 0.0

GFSWCAN_prec_snow24_204.txt.gz
Snowfall_Accumulation
0.0 0.0 0.0 0.0 0.0 0.0 0.0 0.0 0.0 0.0 0.0 0.0 0.0 0.0 0.0 0.0 0.0 0.0 0.0 0.0 0.0 1.7 0.2 0.0 0.0 0.5 0.6 0.6 1.5 0.3 0.4 0.1 0.0 1.2 1.4 0.6 0.2 0.7 0.3 0.1 0.0 0.0 0.0 0.0 0.0 0.0 0.0 0.0 0.0 0.0 0.0 0.0 0.0 0.0
0.0 0.0 0.0 0.0 0.0 0.0 0.0 0.0 0.0 0.0 0.0 0.0 0.0 0.0 0.0 0.0 0.0 0.0 0.0 0.0 0.0 1.0 1.0 0.0 0.0 0.0 0.0 0.0 0.4 0.6 0.6 0.1 1.1 0.7 0.4 2.1 2.2 1.2 0.6 0.7 0.0 0.3 0.1 0.0 0.0 0.0 0.0 0.0 0.0 0.0 0.0 0.0 0.0 0.0
0.0 0.0 0.0 0.0 0.0 0.0 0.0 0.0 0.0 0.0 0.0 0.0 0.0 0.0 0.0 0.0 0.0 0.0 0.0 0.0 0.0 1.3 0.0 0.0 0.0 0.0 0.0 0.0 0.0 2.0 0.0 0.0 0.0 0.0 2.5 2.4 1.8 1.2 1.3 1.0 0.0 0.0 0.7 0.5 0.3 0.0 0.0 0.0 0.0 0.0 0.0 0.0 0.0 0.0
0.0 0.0 0.0 0.0 0.0 0.0 0.0 0.0 0.0 0.0 0.0 0.0 0.0 0.0 0.0 0.0 0.0 0.0 0.0 0.0 0.0 1.6 7.7 1.3 0.0 0.0 0.0 0.0 0.0 0.0 0.0 0.0 0.0 0.0 2.6 3.8 1.8 0.4 0.1 0.1 0.0 0.2 0.2 0.5 0.3 0.0 0.0 0.0 0.0 0.0 0.0 0.0 0.0 0.0
0.0 0.0 0.0 0.0 0.0 0.0 0.0 0.0 0.0 0.0 0.0 0.0 0.0 0.0 0.0 0.0 0.0 0.0 0.0 0.0 0.0 1.5 3.8 0.8 0.0 0.0 0.0 0.0 0.0 0.0 0.0 0.1 0.1 1.6 2.4 2.2 0.0 0.8 0.3 0.2 0.1 0.0 0.0 0.1 0.3 0.0 0.1 0.1 0.0 0.0 0.0 0.0 0.0 0.0
0.0 0.0 0.0 0.0 0.0 0.0 0.0 0.0 0.0 0.0 0.0 0.0 0.0 0.0 0.0 0.0 0.0 0.0 3.4 0.0 0.0 0.0 5.1 8.3 0.0 0.0 0.0 0.0 0.0 0.0 0.0 0.2 0.0 1.5 3.9 0.1 0.0 0.2 0.8 1.2 0.0 0.0 0.0 0.0 0.0 0.0 0.0 0.0 0.0 0.0 0.0 0.0 0.0 0.0
0.0 0.0 0.0 0.0 0.0 0.0 0.0 0.0 0.0 0.0 0.0 0.0 0.0 0.0 0.0 0.0 0.0 2.0 7.9 0.0 0.0 0.0 7.5 13.4 5.5 0.0 0.0 0.0 0.0 0.0 0.0 0.0 0.1 2.2 2.6 0.1 0.0 1.4 2.9 1.7 0.0 0.0 0.0 0.0 0.0 0.0 0.0 0.0 0.0 0.0 0.0 0.0 0.0 0.0
0.0 0.0 0.0 0.0 0.0 0.0 0.0 0.0 0.0 0.0 0.0 0.0 0.0 0.0 0.0 0.0 0.0 0.1 0.0 0.0 0.0 0.0 8.1 16.6 6.8 1.6 0.0 0.1 1.8 0.0 0.3 0.3 0.2 2.1 0.0 0.0 0.2 1.6 3.0 0.9 0.1 0.0 0.0 0.0 0.0 0.0 0.0 0.0 0.0 0.1 0.0 0.0 0.0 0.0
0.0 0.0 0.0 0.0 0.0 0.0 0.0 0.0 0.0 0.0 0.0 0.0 0.0 0.0 0.0 0.0 0.1 0.0 0.0 0.0 0.0 2.2 22.5 13.8 5.2 2.5 0.0 0.3 0.7 1.4 0.0 6.3 3.0 2.4 2.3 1.0 1.8 2.8 0.1 0.0 0.0 0.0 0.0 0.0 0.0 0.0 0.0 0.1 0.1 0.0 0.0 0.0 0.0 0.0
0.0 0.0 0.0 0.0 0.0 0.0 0.0 0.0 0.0 0.0 0.0 0.0 0.0 5.1 19.1 0.0 0.0 0.0 0.0 3.3 12.0 18.1 12.2 10.1 1.6 2.4 0.3 1.4 5.2 5.7 7.2 8.5 7.7 4.9 0.8 3.1 1.9 0.1 0.0 0.0 0.0 0.0 0.0 0.0 0.0 0.0 0.0 0.0 0.0 0.0 0.0 0.0 0.0 0.0
0.0 0.0 0.0 0.0 0.0 0.0 0.0 0.0 0.0 0.0 0.0 0.0 11.5 11.8 14.5 0.0 7.2 14.2 21.8 25.2 27.1 26.0 17.4 5.4 2.5 1.9 0.9 3.9 4.7 6.6 7.7 7.9 7.3 2.8 2.6 3.0 0.9 0.1 0.0 0.1 0.0 0.0 0.0 0.0 0.0 0.0 0.0 0.0 0.0 0.0 0.0 0.0 0.0 0.1
0.0 0.0 0.0 0.0 0.0 0.0 0.0 0.0 0.0 9.2 7.4 5.4 4.1 6.7 8.0 10.4 14.5 16.8 14.6 10.4 14.2 12.4 9.1 5.4 1.3 0.6 2.4 6.1 9.6 10.5 8.4 5.7 4.3 0.9 2.6 1.4 0.0 0.0 0.1 0.3 0.1 0.0 0.0 0.0 0.0 0.0 0.0 0.0 0.0 0.0 0.0 0.1 0.0 0.0
0.0 0.0 0.0 0.0 0.0 0.0 0.0 0.0 0.0 0.0 0.0 5.6 7.1 6.2 5.6 4.9 5.9 6.0 4.9 3.8 5.7 3.4 1.9 2.0 2.8 2.5 4.5 8.2 11.8 8.5 7.9 6.4 2.2 2.8 0.7 0.0 0.1 0.2 0.4 0.1 0.1 0.0 0.0 0.0 0.0 0.0 0.0 0.0 0.0 0.0 0.1 0.1 0.1 0.6
0.0 0.0 0.0 0.0 0.0 0.0 0.0 0.0 0.0 0.0 6.1 6.2 5.2 5.1 5.9 3.4 3.8 2.5 2.1 2.1 0.8 1.5 0.4 0.5 4.3 6.0 5.5 6.5 5.5 8.3 3.9 1.4 1.6 0.4 0.5 0.0 0.1 0.4 0.2 0.0 0.0 0.0 0.0 0.0 0.0 0.0 0.0 0.1 0.0 0.0 0.3 0.5 1.1 1.5
0.0 0.0 0.0 0.0 0.0 0.0 0.0 0.0 0.0 0.0 2.5 5.3 5.0 4.7 3.7 3.2 2.8 2.3 1.4 1.8 2.7 2.4 3.4 3.4 4.4 4.1 5.0 6.1 5.8 4.2 3.7 2.0 0.6 0.2 0.2 0.3 0.5 0.4 0.6 0.7 0.0 0.0 0.0 0.2 0.3 0.4 0.4 0.2 1.0 2.0 2.6 2.5 1.7 1.2
0.0 0.0 0.0 0.0 0.0 0.0 0.0 0.0 0.0 0.2 1.4 2.1 3.3 3.9 2.7 2.3 3.3 3.6 3.0 3.6 4.2 4.5 5.0 7.5 6.4 5.6 7.0 5.8 3.8 1.9 0.8 1.2 1.0 0.9 1.3 1.4 1.5 1.4 2.0 3.3 4.2 4.7 3.9 2.7 2.7 2.9 3.1 2.6 2.2 2.4 2.6 1.6 0.5 0.2
0.0 0.0 0.0 0.0 0.0 0.0 0.0 0.0 0.0 0.7 1.5 1.7 2.4 3.3 5.1 5.1 5.1 5.8 5.0 5.0 4.6 6.1 5.3 6.9 6.6 5.6 4.4 3.1 1.8 0.9 1.0 1.0 1.6 2.6 2.8 2.7 2.8 3.1 3.5 4.4 5.4 6.6 7.7 5.3 4.1 3.5 3.4 2.7 1.8 0.9 0.7 0.5 0.3 0.0
0.0 0.0 0.0 0.0 0.0 0.0 0.0 0.0 0.3 1.2 2.3 2.9 2.7 2.8 2.6 3.9 4.5 3.1 3.1 3.7 6.0 6.2 5.3 4.8 3.7 2.4 2.0 1.3 0.9 1.3 1.6 1.9 2.5 3.1 4.3 5.2 5.1 5.4 4.9 5.3 5.3 4.8 4.2 3.4 2.6 2.0 1.5 1.1 0.9 0.9 0.6 0.3 0.2 0.1
0.0 0.0 0.0 0.0 0.0 0.0 0.0 0.0 0.7 1.9 2.4 2.9 3.4 2.5 1.4 2.0 2.3 2.5 2.7 3.6 5.0 4.1 3.6 2.8 2.9 3.0 3.2 2.6 2.5 2.4 2.4 2.5 3.4 4.0 5.5 5.8 4.8 4.3 3.7 3.1 2.7 2.3 2.0 1.6 1.1 0.9 0.7 0.5 0.4 0.3 0.2 0.1 0.1 0.0
0.0 0.0 0.0 0.0 0.0 0.0 0.0 0.3 0.6 1.4 1.3 2.0 2.6 1.6 0.6 2.3 2.4 1.5 1.4 1.2 1.4 1.3 1.9 2.8 4.1 4.8 5.6 6.1 5.2 3.9 4.4 4.4 3.3 3.0 3.9 3.5 2.2 1.0 0.5 0.3 0.2 0.1 0.1 0.2 0.3 0.2 0.1 0.1 0.1 0.0 0.0 0.0 0.0 0.0
0.0 0.0 0.0 0.0 0.0 0.0 0.0 0.0 0.3 0.5 0.5 1.6 1.6 0.7 1.7 1.3 1.2 0.9 0.8 0.0 0.1 1.6 3.8 4.8 5.2 5.7 5.3 5.2 5.5 4.8 4.8 2.8 1.8 1.1 1.0 0.6 0.3 0.1 0.0 0.0 0.0 0.0 0.0 0.0 0.0 0.0 0.0 0.0 0.0 0.0 0.0 0.0 0.0 0.0
0.0 0.0 0.0 0.0 0.0 0.0 0.0 0.0 0.1 0.0 0.1 1.0 0.9 0.9 1.1 1.1 0.9 0.6 0.2 0.1 2.1 3.1 4.4 4.7 4.1 4.2 3.1 2.7 1.8 1.2 0.9 0.2 0.2 0.2 0.1 0.1 0.0 0.0 0.0 0.0 0.0 0.0 0.0 0.0 0.0 0.0 0.0 0.0 0.0 0.0 0.0 0.0 0.0 0.0
0.0 0.0 0.0 0.0 0.0 0.0 0.0 0.0 0.0 0.0 0.0 0.6 0.8 0.7 1.1 1.0 0.0 0.0 0.1 1.4 2.7 3.9 3.4 2.3 1.6 0.3 0.1 0.2 0.0 0.0 0.0 0.0 0.0 0.0 0.0 0.0 0.0 0.0 0.0 0.0 0.0 0.0 0.0 0.0 0.0 0.0 0.0 0.0 0.0 0.0 0.0 0.0 0.0 0.0
0.0 0.0 0.0 0.0 0.0 0.0 0.0 0.0 0.0 0.0 0.0 0.1 0.8 0.7 1.0 0.8 0.0 0.0 0.5 1.4 3.1 3.4 2.2 2.2 1.0 0.1 0.0 0.0 0.0 0.0 0.0 0.0 0.0 0.0 0.0 0.0 0.0 0.0 0.0 0.0 0.0 0.0 0.0 0.0 0.0 0.0 0.0 0.0 0.0 0.0 0.0 0.0 0.0 0.0
0.0 0.0 0.0 0.0 0.0 0.0 0.0 0.0 0.0 0.0 0.0 0.0 0.5 0.6 0.6 0.5 0.1 0.2 0.7 1.5 2.0 2.0 2.3 2.3 1.7 0.7 0.4 0.3 0.1 0.0 0.0 0.0 0.0 0.0 0.0 0.0 0.0 0.0 0.0 0.0 0.0 0.0 0.0 0.0 0.0 0.0 0.0 0.0 0.0 0.0 0.0 0.0 0.0 0.1
0.0 0.0 0.0 0.0 0.0 0.0 0.0 0.0 0.0 0.0 0.0 0.0 0.1 0.3 0.4 0.2 0.1 0.6 0.8 1.4 1.6 1.7 1.6 1.2 0.8 0.3 0.0 0.0 0.0 0.0 0.0 0.0 0.0 0.0 0.0 0.0 0.0 0.0 0.0 0.0 0.0 0.0 0.0 0.0 0.0 0.1 0.0 0.0 0.0 0.0 0.0 0.0 0.0 0.2
0.0 0.0 0.1 0.0 0.0 0.0 0.0 0.0 0.0 0.0 0.0 0.0 0.0 0.1 0.2 0.2 0.3 0.8 1.2 1.5 1.3 1.3 0.7 0.2 0.0 0.0 0.0 0.0 0.0 0.0 0.0 0.0 0.0 0.0 0.0 0.0 0.0 0.0 0.0 0.0 0.1 0.1 0.1 0.0 0.1 0.2 0.2 0.0 0.0 0.0 0.0 0.0 0.1 0.3
0.0 0.0 0.0 0.0 0.0 0.0 0.1 0.0 0.0 0.3 0.1 0.4 0.0 0.0 0.0 0.2 0.8 1.1 1.3 1.4 1.2 0.7 0.0 0.0 0.0 0.0 0.0 0.0 0.0 0.0 0.0 0.0 0.0 0.0 0.0 0.0 0.0 0.0 0.0 0.1 0.1 0.2 0.1 0.0 0.1 0.2 0.2 0.2 0.1 0.0 0.1 0.4 0.1 0.2
0.0 0.0 0.0 0.0 0.0 0.0 0.1 0.2 0.3 0.5 0.6 0.6 0.4 0.5 1.0 0.9 0.8 1.0 0.9 0.8 0.6 0.2 0.0 0.0 0.0 0.0 0.0 0.0 0.0 0.0 0.0 0.0 0.0 0.0 0.0 0.0 0.0 0.0 0.0 0.0 0.0 0.0 0.0 0.0 0.0 0.3 0.7 0.9 1.2 1.4 1.0 0.6 0.3 0.2
0.0 0.1 0.0 0.0 0.0 0.0 0.3 0.4 0.4 0.6 0.3 0.3 0.1 0.1 0.1 0.5 0.7 0.8 0.5 0.3 0.2 0.1 0.0 0.0 0.0 0.0 0.0 0.0 0.0 0.0 0.0 0.0 0.0 0.0 0.0 0.0 0.0 0.0 0.0 0.0 0.0 0.0 0.0 0.0 0.0 0.0 0.1 0.2 0.1 0.1 0.3 0.3 0.2 0.2
0.1 0.0 0.0 0.0 0.0 0.2 0.4 0.4 0.5 0.3 0.2 0.2 0.1 0.0 0.0 0.0 0.5 0.4 0.3 0.2 0.2 0.1 0.0 0.0 0.0 0.0 0.0 0.0 0.0 0.0 0.0 0.0 0.0 0.0 0.3 0.3 0.1 0.0 0.0 0.0 0.0 0.1 0.3 0.3 0.3 0.3 0.4 0.4 0.4 0.3 0.2 0.2 0.1 0.1
0.0 0.0 0.0 0.0 0.0 0.1 0.1 0.2 0.4 0.2 0.2 0.2 0.2 0.2 0.2 0.1 0.1 0.2 0.4 0.2 0.1 0.0 0.0 0.0 0.0 0.0 0.0 0.0 0.0 0.0 0.1 0.0 0.0 0.0 0.0 0.0 0.0 0.0 0.0 0.3 0.4 0.8 0.6 0.6 0.6 0.5 0.5 0.4 0.3 0.2 0.1 0.1 0.1 0.0
0.0 0.0 0.0 0.0 0.0 0.0 0.0 0.0 0.1 0.2 0.1 0.2 0.4 0.4 0.4 0.2 0.2 0.3 0.5 0.3 0.1 0.1 0.1 0.0 0.0 0.0 0.0 0.0 0.0 0.0 0.0 0.0 0.0 0.1 0.4 0.7 0.8 1.0 1.0 1.2 0.9 0.7 0.7 0.5 0.4 0.3 0.2 0.2 0.2 0.2 0.1 0.0 0.0 0.0